owner,sensor,date,latitude,longitude,vertical_datum,mass_concentration_of_oxygen_in_sea_water,qcFlag 
DISL,ioos:station:DISL:MHPA:1,2016-10-01T00:00:00Z,30.6671,-87.9365,1.086,7.7,1111122 
DISL,ioos:station:DISL:MHPA:1,2016-10-01T00:30:00Z,30.6671,-87.9365,1.067,7.48,1111122 
DISL,ioos:station:DISL:MHPA:1,2016-10-01T01:00:00Z,30.6671,-87.9365,1.06,7.18,1111122 
DISL,ioos:station:DISL:MHPA:1,2016-10-01T01:30:00Z,30.6671,-87.9365,1.063,6.93,1111122 
DISL,ioos:station:DISL:MHPA:1,2016-10-01T02:00:00Z,30.6671,-87.9365,1.085,6.44,1111122 
DISL,ioos:station:DISL:MHPA:1,2016-10-01T02:30:00Z,30.6671,-87.9365,1.107,6.42,1111122 
DISL,ioos:station:DISL:MHPA:1,2016-10-01T03:00:00Z,30.6671,-87.9365,1.129,6.4,1111122 
DISL,ioos:station:DISL:MHPA:1,2016-10-01T03:30:00Z,30.6671,-87.9365,1.162,6.57,1111122 
DISL,ioos:station:DISL:MHPA:1,2016-10-01T04:00:00Z,30.6671,-87.9365,1.201,6.76,1111122 
DISL,ioos:station:DISL:MHPA:1,2016-10-01T04:30:00Z,30.6671,-87.9365,1.217,7.15,1111122 
DISL,ioos:station:DISL:MHPA:1,2016-10-01T05:00:00Z,30.6671,-87.9365,1.235,6.94,1111122 
DISL,ioos:station:DISL:MHPA:1,2016-10-01T05:30:00Z,30.6671,-87.9365,1.252,6.74,1111122 
DISL,ioos:station:DISL:MHPA:1,2016-10-01T06:00:00Z,30.6671,-87.9365,1.251,6.45,1111122 
DISL,ioos:station:DISL:MHPA:1,2016-10-01T06:30:00Z,30.6671,-87.9365,1.236,6.7,1111122 
DISL,ioos:station:DISL:MHPA:1,2016-10-01T07:00:00Z,30.6671,-87.9365,1.226,6.66,1111122 
DISL,ioos:station:DISL:MHPA:1,2016-10-01T07:30:00Z,30.6671,-87.9365,1.212,6.43,1111122 
DISL,ioos:station:DISL:MHPA:1,2016-10-01T08:00:00Z,30.6671,-87.9365,1.19,6.47,1111122 
DISL,ioos:station:DISL:MHPA:1,2016-10-01T08:30:00Z,30.6671,-87.9365,1.172,6.41,1111122 
DISL,ioos:station:DISL:MHPA:1,2016-10-01T09:00:00Z,30.6671,-87.9365,1.156,6.29,1111122 
DISL,ioos:station:DISL:MHPA:1,2016-10-01T09:30:00Z,30.6671,-87.9365,1.13,5.99,1111122 
DISL,ioos:station:DISL:MHPA:1,2016-10-01T10:00:00Z,30.6671,-87.9365,1.095,5.96,1111122 
DISL,ioos:station:DISL:MHPA:1,2016-10-01T10:30:00Z,30.6671,-87.9365,1.07,4.99,1111122 
DISL,ioos:station:DISL:MHPA:1,2016-10-01T11:00:00Z,30.6671,-87.9365,1.039,5.24,1111122 
DISL,ioos:station:DISL:MHPA:1,2016-10-01T11:30:00Z,30.6671,-87.9365,1.014,5.27,1111122 
DISL,ioos:station:DISL:MHPA:1,2016-10-01T12:00:00Z,30.6671,-87.9365,0.992,5.09,1111122 
DISL,ioos:station:DISL:MHPA:1,2016-10-01T12:30:00Z,30.6671,-87.9365,0.973,5.03,1111122 
DISL,ioos:station:DISL:MHPA:1,2016-10-01T13:00:00Z,30.6671,-87.9365,0.947,5.14,1111122 
DISL,ioos:station:DISL:MHPA:1,2016-10-01T13:30:00Z,30.6671,-87.9365,0.937,5.23,1111122 
DISL,ioos:station:DISL:MHPA:1,2016-10-01T14:00:00Z,30.6671,-87.9365,0.942,5.23,1111122 
DISL,ioos:station:DISL:MHPA:1,2016-10-01T14:30:00Z,30.6671,-87.9365,0.959,5.27,1111122 
DISL,ioos:station:DISL:MHPA:1,2016-10-01T15:00:00Z,30.6671,-87.9365,0.985,5.27,1111122 
DISL,ioos:station:DISL:MHPA:1,2016-10-01T15:30:00Z,30.6671,-87.9365,1.016,5.61,1111122 
DISL,ioos:station:DISL:MHPA:1,2016-10-01T16:00:00Z,30.6671,-87.9365,1.046,6.05,1111122 
DISL,ioos:station:DISL:MHPA:1,2016-10-01T16:30:00Z,30.6671,-87.9365,1.073,6.49,1111122 
DISL,ioos:station:DISL:MHPA:1,2016-10-01T17:00:00Z,30.6671,-87.9365,1.085,6.78,1111122 
DISL,ioos:station:DISL:MHPA:1,2016-10-01T17:30:00Z,30.6671,-87.9365,1.089,6.39,1111122 
DISL,ioos:station:DISL:MHPA:1,2016-10-01T18:00:00Z,30.6671,-87.9365,1.104,8.09,1111122 
DISL,ioos:station:DISL:MHPA:1,2016-10-01T18:30:00Z,30.6671,-87.9365,1.111,7.69,1111122 
DISL,ioos:station:DISL:MHPA:1,2016-10-01T19:00:00Z,30.6671,-87.9365,1.111,7.2,1111122 
DISL,ioos:station:DISL:MHPA:1,2016-10-01T19:30:00Z,30.6671,-87.9365,1.129,7.24,1111122 
DISL,ioos:station:DISL:MHPA:1,2016-10-01T20:00:00Z,30.6671,-87.9365,1.139,7.5,1111122 
DISL,ioos:station:DISL:MHPA:1,2016-10-01T20:30:00Z,30.6671,-87.9365,1.135,7.39,1111122 
DISL,ioos:station:DISL:MHPA:1,2016-10-01T21:00:00Z,30.6671,-87.9365,1.158,8.02,1111122 
DISL,ioos:station:DISL:MHPA:1,2016-10-01T21:30:00Z,30.6671,-87.9365,1.167,7.95,1111122 
DISL,ioos:station:DISL:MHPA:1,2016-10-01T22:00:00Z,30.6671,-87.9365,1.146,8.34,1111122 
DISL,ioos:station:DISL:MHPA:1,2016-10-01T22:30:00Z,30.6671,-87.9365,1.142,9.08,1111122 
DISL,ioos:station:DISL:MHPA:1,2016-10-01T23:00:00Z,30.6671,-87.9365,1.135,8.96,1111122 
DISL,ioos:station:DISL:MHPA:1,2016-10-01T23:30:00Z,30.6671,-87.9365,1.115,8.71,1111122 
DISL,ioos:station:DISL:MHPA:1,2016-10-02T00:00:00Z,30.6671,-87.9365,1.099,8.64,1111122 
DISL,ioos:station:DISL:MHPA:1,2016-10-02T00:30:00Z,30.6671,-87.9365,1.108,7.6,1111122 
DISL,ioos:station:DISL:MHPA:1,2016-10-02T01:00:00Z,30.6671,-87.9365,1.11,7.0,1111122 
DISL,ioos:station:DISL:MHPA:1,2016-10-02T01:30:00Z,30.6671,-87.9365,1.124,7.39,1111122 
DISL,ioos:station:DISL:MHPA:1,2016-10-02T02:00:00Z,30.6671,-87.9365,1.129,8.09,1111122 
DISL,ioos:station:DISL:MHPA:1,2016-10-02T02:30:00Z,30.6671,-87.9365,1.148,7.89,1111122 
DISL,ioos:station:DISL:MHPA:1,2016-10-02T03:00:00Z,30.6671,-87.9365,1.175,8.01,1111122 
DISL,ioos:station:DISL:MHPA:1,2016-10-02T03:30:00Z,30.6671,-87.9365,1.2,7.84,1111122 
DISL,ioos:station:DISL:MHPA:1,2016-10-02T04:00:00Z,30.6671,-87.9365,1.228,7.43,1111122 
DISL,ioos:station:DISL:MHPA:1,2016-10-02T04:30:00Z,30.6671,-87.9365,1.255,7.19,1111122 
DISL,ioos:station:DISL:MHPA:1,2016-10-02T05:00:00Z,30.6671,-87.9365,1.27,6.52,1111122 
DISL,ioos:station:DISL:MHPA:1,2016-10-02T05:30:00Z,30.6671,-87.9365,1.267,6.42,1111122 
DISL,ioos:station:DISL:MHPA:1,2016-10-02T06:00:00Z,30.6671,-87.9365,1.277,6.14,1111122 
DISL,ioos:station:DISL:MHPA:1,2016-10-02T06:30:00Z,30.6671,-87.9365,1.26,6.14,1111122 
DISL,ioos:station:DISL:MHPA:1,2016-10-02T07:00:00Z,30.6671,-87.9365,1.242,6.06,1111122 
DISL,ioos:station:DISL:MHPA:1,2016-10-02T07:30:00Z,30.6671,-87.9365,1.223,5.81,1111122 
DISL,ioos:station:DISL:MHPA:1,2016-10-02T08:00:00Z,30.6671,-87.9365,1.203,6.03,1111122 
DISL,ioos:station:DISL:MHPA:1,2016-10-02T08:30:00Z,30.6671,-87.9365,1.172,5.97,1111122 
DISL,ioos:station:DISL:MHPA:1,2016-10-02T09:00:00Z,30.6671,-87.9365,1.145,6.04,1111122 
DISL,ioos:station:DISL:MHPA:1,2016-10-02T09:30:00Z,30.6671,-87.9365,1.12,6.17,1111122 
DISL,ioos:station:DISL:MHPA:1,2016-10-02T10:00:00Z,30.6671,-87.9365,1.09,5.96,1111122 
DISL,ioos:station:DISL:MHPA:1,2016-10-02T10:30:00Z,30.6671,-87.9365,1.051,5.81,1111122 
DISL,ioos:station:DISL:MHPA:1,2016-10-02T11:00:00Z,30.6671,-87.9365,1.024,5.55,1111122 
DISL,ioos:station:DISL:MHPA:1,2016-10-02T11:30:00Z,30.6671,-87.9365,0.989,5.41,1111122 
DISL,ioos:station:DISL:MHPA:1,2016-10-02T12:00:00Z,30.6671,-87.9365,0.954,5.18,1111122 
DISL,ioos:station:DISL:MHPA:1,2016-10-02T12:30:00Z,30.6671,-87.9365,0.923,4.83,1111122 
DISL,ioos:station:DISL:MHPA:1,2016-10-02T13:00:00Z,30.6671,-87.9365,0.9,4.59,1111122 
DISL,ioos:station:DISL:MHPA:1,2016-10-02T13:30:00Z,30.6671,-87.9365,0.884,4.04,1111122 
DISL,ioos:station:DISL:MHPA:1,2016-10-02T14:00:00Z,30.6671,-87.9365,0.878,3.98,1111122 
DISL,ioos:station:DISL:MHPA:1,2016-10-02T14:30:00Z,30.6671,-87.9365,0.872,4.2,1111122 
DISL,ioos:station:DISL:MHPA:1,2016-10-02T15:00:00Z,30.6671,-87.9365,0.871,4.52,1111122 
DISL,ioos:station:DISL:MHPA:1,2016-10-02T15:30:00Z,30.6671,-87.9365,0.889,4.83,1111122 
DISL,ioos:station:DISL:MHPA:1,2016-10-02T16:00:00Z,30.6671,-87.9365,0.914,4.77,1111122 
DISL,ioos:station:DISL:MHPA:1,2016-10-02T16:30:00Z,30.6671,-87.9365,0.942,5.55,1111122 
DISL,ioos:station:DISL:MHPA:1,2016-10-02T17:00:00Z,30.6671,-87.9365,0.973,5.56,1111122 
DISL,ioos:station:DISL:MHPA:1,2016-10-02T17:30:00Z,30.6671,-87.9365,1.007,5.14,1111122 
DISL,ioos:station:DISL:MHPA:1,2016-10-02T18:00:00Z,30.6671,-87.9365,1.037,6.02,1111122 
DISL,ioos:station:DISL:MHPA:1,2016-10-02T18:30:00Z,30.6671,-87.9365,1.059,6.58,1111122 
DISL,ioos:station:DISL:MHPA:1,2016-10-02T19:00:00Z,30.6671,-87.9365,1.072,6.91,1111122 
DISL,ioos:station:DISL:MHPA:1,2016-10-02T19:30:00Z,30.6671,-87.9365,1.109,7.27,1111122 
DISL,ioos:station:DISL:MHPA:1,2016-10-02T20:00:00Z,30.6671,-87.9365,1.126,7.45,1111122 
DISL,ioos:station:DISL:MHPA:1,2016-10-02T20:30:00Z,30.6671,-87.9365,1.144,7.56,1111122 
DISL,ioos:station:DISL:MHPA:1,2016-10-02T21:00:00Z,30.6671,-87.9365,1.155,7.86,1111122 
DISL,ioos:station:DISL:MHPA:1,2016-10-02T21:30:00Z,30.6671,-87.9365,1.181,6.53,1111122 
DISL,ioos:station:DISL:MHPA:1,2016-10-02T22:00:00Z,30.6671,-87.9365,1.19,6.36,1111122 
DISL,ioos:station:DISL:MHPA:1,2016-10-02T22:30:00Z,30.6671,-87.9365,1.184,6.27,1111122 
DISL,ioos:station:DISL:MHPA:1,2016-10-02T23:00:00Z,30.6671,-87.9365,1.203,6.87,1111122 
DISL,ioos:station:DISL:MHPA:1,2016-10-02T23:30:00Z,30.6671,-87.9365,1.182,7.03,1111122 
DISL,ioos:station:DISL:MHPA:1,2016-10-03T00:00:00Z,30.6671,-87.9365,1.177,7.14,1111122 
DISL,ioos:station:DISL:MHPA:1,2016-10-03T00:30:00Z,30.6671,-87.9365,1.162,7.39,1111122 
DISL,ioos:station:DISL:MHPA:1,2016-10-03T01:00:00Z,30.6671,-87.9365,1.141,7.55,1111122 
DISL,ioos:station:DISL:MHPA:1,2016-10-03T01:30:00Z,30.6671,-87.9365,1.141,7.75,1111122 
DISL,ioos:station:DISL:MHPA:1,2016-10-03T02:00:00Z,30.6671,-87.9365,1.142,7.6,1111122 
DISL,ioos:station:DISL:MHPA:1,2016-10-03T02:30:00Z,30.6671,-87.9365,1.14,7.5,1111122 
DISL,ioos:station:DISL:MHPA:1,2016-10-03T03:00:00Z,30.6671,-87.9365,1.172,7.37,1111122 
DISL,ioos:station:DISL:MHPA:1,2016-10-03T03:30:00Z,30.6671,-87.9365,1.189,7.16,1111122 
DISL,ioos:station:DISL:MHPA:1,2016-10-03T04:00:00Z,30.6671,-87.9365,1.21,6.51,1111122 
DISL,ioos:station:DISL:MHPA:1,2016-10-03T04:30:00Z,30.6671,-87.9365,1.235,6.14,1111122 
DISL,ioos:station:DISL:MHPA:1,2016-10-03T05:00:00Z,30.6671,-87.9365,1.263,5.76,1111122 
DISL,ioos:station:DISL:MHPA:1,2016-10-03T05:30:00Z,30.6671,-87.9365,1.28,5.79,1111122 
DISL,ioos:station:DISL:MHPA:1,2016-10-03T06:00:00Z,30.6671,-87.9365,1.273,6.01,1111122 
DISL,ioos:station:DISL:MHPA:1,2016-10-03T06:30:00Z,30.6671,-87.9365,1.259,6.18,1111122 
DISL,ioos:station:DISL:MHPA:1,2016-10-03T07:00:00Z,30.6671,-87.9365,1.258,6.12,1111122 
DISL,ioos:station:DISL:MHPA:1,2016-10-03T07:30:00Z,30.6671,-87.9365,1.249,6.14,1111122 
DISL,ioos:station:DISL:MHPA:1,2016-10-03T08:00:00Z,30.6671,-87.9365,1.226,5.82,1111122 
DISL,ioos:station:DISL:MHPA:1,2016-10-03T08:30:00Z,30.6671,-87.9365,1.182,5.76,1111122 
DISL,ioos:station:DISL:MHPA:1,2016-10-03T09:00:00Z,30.6671,-87.9365,1.169,5.23,1111122 
DISL,ioos:station:DISL:MHPA:1,2016-10-03T09:30:00Z,30.6671,-87.9365,1.147,4.48,1111122 
DISL,ioos:station:DISL:MHPA:1,2016-10-03T10:00:00Z,30.6671,-87.9365,1.126,4.07,1111122 
DISL,ioos:station:DISL:MHPA:1,2016-10-03T10:30:00Z,30.6671,-87.9365,1.092,3.83,1111122 
DISL,ioos:station:DISL:MHPA:1,2016-10-03T11:00:00Z,30.6671,-87.9365,1.066,3.9,1111122 
DISL,ioos:station:DISL:MHPA:1,2016-10-03T11:30:00Z,30.6671,-87.9365,1.031,3.95,1111122 
DISL,ioos:station:DISL:MHPA:1,2016-10-03T12:00:00Z,30.6671,-87.9365,1.003,4.08,1111122 
DISL,ioos:station:DISL:MHPA:1,2016-10-03T12:30:00Z,30.6671,-87.9365,0.978,4.04,1111122 
DISL,ioos:station:DISL:MHPA:1,2016-10-03T13:00:00Z,30.6671,-87.9365,0.944,3.91,1111122 
DISL,ioos:station:DISL:MHPA:1,2016-10-03T13:30:00Z,30.6671,-87.9365,0.917,4.06,1111122 
DISL,ioos:station:DISL:MHPA:1,2016-10-03T14:00:00Z,30.6671,-87.9365,0.91,4.14,1111122 
DISL,ioos:station:DISL:MHPA:1,2016-10-03T14:30:00Z,30.6671,-87.9365,0.896,4.48,1111122 
DISL,ioos:station:DISL:MHPA:1,2016-10-03T15:00:00Z,30.6671,-87.9365,0.881,4.69,1111122 
DISL,ioos:station:DISL:MHPA:1,2016-10-03T15:30:00Z,30.6671,-87.9365,0.892,4.72,1111122 
DISL,ioos:station:DISL:MHPA:1,2016-10-03T16:00:00Z,30.6671,-87.9365,0.903,5.22,1111122 
DISL,ioos:station:DISL:MHPA:1,2016-10-03T16:30:00Z,30.6671,-87.9365,0.909,5.28,1111122 
DISL,ioos:station:DISL:MHPA:1,2016-10-03T17:00:00Z,30.6671,-87.9365,0.925,5.9,1111122 
DISL,ioos:station:DISL:MHPA:1,2016-10-03T17:30:00Z,30.6671,-87.9365,0.97,6.55,1111122 
DISL,ioos:station:DISL:MHPA:1,2016-10-03T18:00:00Z,30.6671,-87.9365,1.008,7.35,1111122 
DISL,ioos:station:DISL:MHPA:1,2016-10-03T18:30:00Z,30.6671,-87.9365,1.041,7.81,1111122 
DISL,ioos:station:DISL:MHPA:1,2016-10-03T19:00:00Z,30.6671,-87.9365,1.08,7.81,1111122 
DISL,ioos:station:DISL:MHPA:1,2016-10-03T19:30:00Z,30.6671,-87.9365,1.103,7.64,1111122 
DISL,ioos:station:DISL:MHPA:1,2016-10-03T20:00:00Z,30.6671,-87.9365,1.126,8.07,1111122 
DISL,ioos:station:DISL:MHPA:1,2016-10-03T20:30:00Z,30.6671,-87.9365,1.157,7.8,1111122 
DISL,ioos:station:DISL:MHPA:1,2016-10-03T21:00:00Z,30.6671,-87.9365,1.193,8.43,1111122 
DISL,ioos:station:DISL:MHPA:1,2016-10-03T21:30:00Z,30.6671,-87.9365,1.205,8.28,1111122 
DISL,ioos:station:DISL:MHPA:1,2016-10-03T22:00:00Z,30.6671,-87.9365,1.225,8.97,1111122 
DISL,ioos:station:DISL:MHPA:1,2016-10-03T22:30:00Z,30.6671,-87.9365,1.244,8.02,1111122 
DISL,ioos:station:DISL:MHPA:1,2016-10-03T23:00:00Z,30.6671,-87.9365,1.256,7.91,1111122 
DISL,ioos:station:DISL:MHPA:1,2016-10-03T23:30:00Z,30.6671,-87.9365,1.269,7.56,1111122 
DISL,ioos:station:DISL:MHPA:1,2016-10-04T00:00:00Z,30.6671,-87.9365,1.293,7.77,1111122 
DISL,ioos:station:DISL:MHPA:1,2016-10-04T00:30:00Z,30.6671,-87.9365,1.288,7.64,1111122 
DISL,ioos:station:DISL:MHPA:1,2016-10-04T01:00:00Z,30.6671,-87.9365,1.28,7.51,1111122 
DISL,ioos:station:DISL:MHPA:1,2016-10-04T01:30:00Z,30.6671,-87.9365,1.283,7.46,1111122 
DISL,ioos:station:DISL:MHPA:1,2016-10-04T02:00:00Z,30.6671,-87.9365,1.278,7.1,1111122 
DISL,ioos:station:DISL:MHPA:1,2016-10-04T02:30:00Z,30.6671,-87.9365,1.293,6.71,1111122 
DISL,ioos:station:DISL:MHPA:1,2016-10-04T03:00:00Z,30.6671,-87.9365,1.312,6.66,1111122 
DISL,ioos:station:DISL:MHPA:1,2016-10-04T03:30:00Z,30.6671,-87.9365,1.319,7.01,1111122 
DISL,ioos:station:DISL:MHPA:1,2016-10-04T04:00:00Z,30.6671,-87.9365,1.336,7.14,1111122 
DISL,ioos:station:DISL:MHPA:1,2016-10-04T04:30:00Z,30.6671,-87.9365,1.365,7.54,1111122 
DISL,ioos:station:DISL:MHPA:1,2016-10-04T05:00:00Z,30.6671,-87.9365,1.374,7.46,1111122 
DISL,ioos:station:DISL:MHPA:1,2016-10-04T05:30:00Z,30.6671,-87.9365,1.394,7.02,1111122 
DISL,ioos:station:DISL:MHPA:1,2016-10-04T06:00:00Z,30.6671,-87.9365,1.409,6.83,1111122 
DISL,ioos:station:DISL:MHPA:1,2016-10-04T06:30:00Z,30.6671,-87.9365,1.414,6.92,1111122 
DISL,ioos:station:DISL:MHPA:1,2016-10-04T07:00:00Z,30.6671,-87.9365,1.404,6.74,1111122 
DISL,ioos:station:DISL:MHPA:1,2016-10-04T07:30:00Z,30.6671,-87.9365,1.392,6.24,1111122 
DISL,ioos:station:DISL:MHPA:1,2016-10-04T08:00:00Z,30.6671,-87.9365,1.369,5.92,1111122 
DISL,ioos:station:DISL:MHPA:1,2016-10-04T08:30:00Z,30.6671,-87.9365,1.332,6.25,1111122 
DISL,ioos:station:DISL:MHPA:1,2016-10-04T09:00:00Z,30.6671,-87.9365,1.3,6.25,1111122 
DISL,ioos:station:DISL:MHPA:1,2016-10-04T09:30:00Z,30.6671,-87.9365,1.267,6.27,1111122 
DISL,ioos:station:DISL:MHPA:1,2016-10-04T10:00:00Z,30.6671,-87.9365,1.226,6.09,1111122 
DISL,ioos:station:DISL:MHPA:1,2016-10-04T10:30:00Z,30.6671,-87.9365,1.197,6.13,1111122 
DISL,ioos:station:DISL:MHPA:1,2016-10-04T11:00:00Z,30.6671,-87.9365,1.169,4.47,1111122 
DISL,ioos:station:DISL:MHPA:1,2016-10-04T11:30:00Z,30.6671,-87.9365,1.136,5.65,1111122 
DISL,ioos:station:DISL:MHPA:1,2016-10-04T12:00:00Z,30.6671,-87.9365,1.1,5.63,1111122 
DISL,ioos:station:DISL:MHPA:1,2016-10-04T12:30:00Z,30.6671,-87.9365,1.069,5.25,1111122 
DISL,ioos:station:DISL:MHPA:1,2016-10-04T13:00:00Z,30.6671,-87.9365,1.047,5.17,1111122 
DISL,ioos:station:DISL:MHPA:1,2016-10-04T13:30:00Z,30.6671,-87.9365,1.019,5.19,1111122 
DISL,ioos:station:DISL:MHPA:1,2016-10-04T14:00:00Z,30.6671,-87.9365,0.997,5.45,1111122 
DISL,ioos:station:DISL:MHPA:1,2016-10-04T14:30:00Z,30.6671,-87.9365,0.976,5.63,1111122 
DISL,ioos:station:DISL:MHPA:1,2016-10-04T15:00:00Z,30.6671,-87.9365,0.965,5.61,1111122 
DISL,ioos:station:DISL:MHPA:1,2016-10-04T15:30:00Z,30.6671,-87.9365,0.975,5.97,1111122 
DISL,ioos:station:DISL:MHPA:1,2016-10-04T16:00:00Z,30.6671,-87.9365,0.979,6.14,1111122 
DISL,ioos:station:DISL:MHPA:1,2016-10-04T16:30:00Z,30.6671,-87.9365,0.981,6.44,1111122 
DISL,ioos:station:DISL:MHPA:1,2016-10-04T17:00:00Z,30.6671,-87.9365,0.976,7.9,1111122 
DISL,ioos:station:DISL:MHPA:1,2016-10-04T17:30:00Z,30.6671,-87.9365,0.996,8.04,1111122 
DISL,ioos:station:DISL:MHPA:1,2016-10-04T18:00:00Z,30.6671,-87.9365,1.029,7.15,1111122 
DISL,ioos:station:DISL:MHPA:1,2016-10-04T18:30:00Z,30.6671,-87.9365,1.073,7.75,1111122 
DISL,ioos:station:DISL:MHPA:1,2016-10-04T19:00:00Z,30.6671,-87.9365,1.104,8.29,1111122 
DISL,ioos:station:DISL:MHPA:1,2016-10-04T19:30:00Z,30.6671,-87.9365,1.123,8.57,1111122 
DISL,ioos:station:DISL:MHPA:1,2016-10-04T20:00:00Z,30.6671,-87.9365,1.161,8.14,1111122 
DISL,ioos:station:DISL:MHPA:1,2016-10-04T20:30:00Z,30.6671,-87.9365,1.2,9.02,1111122 
DISL,ioos:station:DISL:MHPA:1,2016-10-04T21:00:00Z,30.6671,-87.9365,1.211,8.06,1111122 
DISL,ioos:station:DISL:MHPA:1,2016-10-04T21:30:00Z,30.6671,-87.9365,1.224,8.11,1111122 
DISL,ioos:station:DISL:MHPA:1,2016-10-04T22:00:00Z,30.6671,-87.9365,1.239,8.07,1111122 
DISL,ioos:station:DISL:MHPA:1,2016-10-04T22:30:00Z,30.6671,-87.9365,1.25,7.94,1111122 
DISL,ioos:station:DISL:MHPA:1,2016-10-04T23:00:00Z,30.6671,-87.9365,1.277,7.48,1111122 
DISL,ioos:station:DISL:MHPA:1,2016-10-04T23:30:00Z,30.6671,-87.9365,1.302,7.67,1111122 
DISL,ioos:station:DISL:MHPA:1,2016-10-05T00:00:00Z,30.6671,-87.9365,1.314,7.44,1111122 
DISL,ioos:station:DISL:MHPA:1,2016-10-05T00:30:00Z,30.6671,-87.9365,1.311,7.39,1111122 
DISL,ioos:station:DISL:MHPA:1,2016-10-05T01:00:00Z,30.6671,-87.9365,1.324,6.7,1111122 
DISL,ioos:station:DISL:MHPA:1,2016-10-05T01:30:00Z,30.6671,-87.9365,1.341,6.33,1111122 
DISL,ioos:station:DISL:MHPA:1,2016-10-05T02:00:00Z,30.6671,-87.9365,1.352,6.05,1111122 
DISL,ioos:station:DISL:MHPA:1,2016-10-05T02:30:00Z,30.6671,-87.9365,1.364,6.49,1111122 
DISL,ioos:station:DISL:MHPA:1,2016-10-05T03:00:00Z,30.6671,-87.9365,1.387,6.25,1111122 
DISL,ioos:station:DISL:MHPA:1,2016-10-05T03:30:00Z,30.6671,-87.9365,1.398,5.29,1111122 
DISL,ioos:station:DISL:MHPA:1,2016-10-05T04:00:00Z,30.6671,-87.9365,1.406,4.64,1111122 
DISL,ioos:station:DISL:MHPA:1,2016-10-05T04:30:00Z,30.6671,-87.9365,1.427,5.53,1111122 
DISL,ioos:station:DISL:MHPA:1,2016-10-05T05:00:00Z,30.6671,-87.9365,1.444,5.3,1111122 
DISL,ioos:station:DISL:MHPA:1,2016-10-05T05:30:00Z,30.6671,-87.9365,1.448,5.19,1111122 
DISL,ioos:station:DISL:MHPA:1,2016-10-05T06:00:00Z,30.6671,-87.9365,1.447,5.18,1111122 
DISL,ioos:station:DISL:MHPA:1,2016-10-05T06:30:00Z,30.6671,-87.9365,1.447,4.93,1111122 
DISL,ioos:station:DISL:MHPA:1,2016-10-05T07:00:00Z,30.6671,-87.9365,1.441,4.53,1111122 
DISL,ioos:station:DISL:MHPA:1,2016-10-05T07:30:00Z,30.6671,-87.9365,1.415,4.98,1111122 
DISL,ioos:station:DISL:MHPA:1,2016-10-05T08:00:00Z,30.6671,-87.9365,1.408,5.04,1111122 
DISL,ioos:station:DISL:MHPA:1,2016-10-05T08:30:00Z,30.6671,-87.9365,1.391,4.66,1111122 
DISL,ioos:station:DISL:MHPA:1,2016-10-05T09:00:00Z,30.6671,-87.9365,1.359,3.81,1111122 
DISL,ioos:station:DISL:MHPA:1,2016-10-05T09:30:00Z,30.6671,-87.9365,1.319,2.77,1111122 
DISL,ioos:station:DISL:MHPA:1,2016-10-05T10:00:00Z,30.6671,-87.9365,1.276,2.7,1111122 
DISL,ioos:station:DISL:MHPA:1,2016-10-05T10:30:00Z,30.6671,-87.9365,1.252,2.7,1111122 
DISL,ioos:station:DISL:MHPA:1,2016-10-05T11:00:00Z,30.6671,-87.9365,1.226,2.61,1111122 
DISL,ioos:station:DISL:MHPA:1,2016-10-05T11:30:00Z,30.6671,-87.9365,1.183,3.21,1111122 
DISL,ioos:station:DISL:MHPA:1,2016-10-05T12:00:00Z,30.6671,-87.9365,1.146,3.3,1111122 
DISL,ioos:station:DISL:MHPA:1,2016-10-05T12:30:00Z,30.6671,-87.9365,1.115,3.37,1111122 
DISL,ioos:station:DISL:MHPA:1,2016-10-05T13:00:00Z,30.6671,-87.9365,1.096,3.48,1111122 
DISL,ioos:station:DISL:MHPA:1,2016-10-05T13:30:00Z,30.6671,-87.9365,1.073,3.79,1111122 
DISL,ioos:station:DISL:MHPA:1,2016-10-05T14:00:00Z,30.6671,-87.9365,1.043,3.42,1111122 
DISL,ioos:station:DISL:MHPA:1,2016-10-05T14:30:00Z,30.6671,-87.9365,1.012,4.14,1111122 
DISL,ioos:station:DISL:MHPA:1,2016-10-05T15:00:00Z,30.6671,-87.9365,1.002,4.07,1111122 
DISL,ioos:station:DISL:MHPA:1,2016-10-05T15:30:00Z,30.6671,-87.9365,0.999,4.96,1111122 
DISL,ioos:station:DISL:MHPA:1,2016-10-05T16:00:00Z,30.6671,-87.9365,0.987,5.17,1111122 
DISL,ioos:station:DISL:MHPA:1,2016-10-05T16:30:00Z,30.6671,-87.9365,0.973,5.46,1111122 
DISL,ioos:station:DISL:MHPA:1,2016-10-05T17:00:00Z,30.6671,-87.9365,0.968,5.19,1111122 
DISL,ioos:station:DISL:MHPA:1,2016-10-05T17:30:00Z,30.6671,-87.9365,0.974,5.28,1111122 
DISL,ioos:station:DISL:MHPA:1,2016-10-05T18:00:00Z,30.6671,-87.9365,0.983,5.26,1111122 
DISL,ioos:station:DISL:MHPA:1,2016-10-05T18:30:00Z,30.6671,-87.9365,1.0,5.54,1111122 
DISL,ioos:station:DISL:MHPA:1,2016-10-05T19:00:00Z,30.6671,-87.9365,1.034,5.43,1111122 
DISL,ioos:station:DISL:MHPA:1,2016-10-05T19:30:00Z,30.6671,-87.9365,1.034,5.94,1111122 
DISL,ioos:station:DISL:MHPA:1,2016-10-05T20:00:00Z,30.6671,-87.9365,1.032,6.58,1111122 
DISL,ioos:station:DISL:MHPA:1,2016-10-05T20:30:00Z,30.6671,-87.9365,1.07,7.34,1111122 
DISL,ioos:station:DISL:MHPA:1,2016-10-05T21:00:00Z,30.6671,-87.9365,1.1,7.08,1111122 
DISL,ioos:station:DISL:MHPA:1,2016-10-05T21:30:00Z,30.6671,-87.9365,1.123,7.26,1111122 
DISL,ioos:station:DISL:MHPA:1,2016-10-05T22:00:00Z,30.6671,-87.9365,1.144,7.28,1111122 
DISL,ioos:station:DISL:MHPA:1,2016-10-05T22:30:00Z,30.6671,-87.9365,1.17,7.17,1111122 
DISL,ioos:station:DISL:MHPA:1,2016-10-05T23:00:00Z,30.6671,-87.9365,1.195,7.25,1111122 
DISL,ioos:station:DISL:MHPA:1,2016-10-05T23:30:00Z,30.6671,-87.9365,1.21,7.95,1111122 
DISL,ioos:station:DISL:MHPA:1,2016-10-06T00:00:00Z,30.6671,-87.9365,1.227,7.75,1111122 
DISL,ioos:station:DISL:MHPA:1,2016-10-06T00:30:00Z,30.6671,-87.9365,1.233,7.87,1111122 
DISL,ioos:station:DISL:MHPA:1,2016-10-06T01:00:00Z,30.6671,-87.9365,1.241,6.92,1111122 
DISL,ioos:station:DISL:MHPA:1,2016-10-06T01:30:00Z,30.6671,-87.9365,1.253,6.54,1111122 
DISL,ioos:station:DISL:MHPA:1,2016-10-06T02:00:00Z,30.6671,-87.9365,1.263,6.44,1111122 
DISL,ioos:station:DISL:MHPA:1,2016-10-06T02:30:00Z,30.6671,-87.9365,1.276,6.13,1111122 
DISL,ioos:station:DISL:MHPA:1,2016-10-06T03:00:00Z,30.6671,-87.9365,1.287,6.23,1111122 
DISL,ioos:station:DISL:MHPA:1,2016-10-06T03:30:00Z,30.6671,-87.9365,1.307,5.81,1111122 
DISL,ioos:station:DISL:MHPA:1,2016-10-06T04:00:00Z,30.6671,-87.9365,1.321,5.71,1111122 
DISL,ioos:station:DISL:MHPA:1,2016-10-06T04:30:00Z,30.6671,-87.9365,1.327,5.58,1111122 
DISL,ioos:station:DISL:MHPA:1,2016-10-06T05:00:00Z,30.6671,-87.9365,1.337,5.6,1111122 
DISL,ioos:station:DISL:MHPA:1,2016-10-06T05:30:00Z,30.6671,-87.9365,1.347,4.98,1111122 
DISL,ioos:station:DISL:MHPA:1,2016-10-06T06:00:00Z,30.6671,-87.9365,1.339,4.75,1111122 
DISL,ioos:station:DISL:MHPA:1,2016-10-06T06:30:00Z,30.6671,-87.9365,1.351,4.23,1111122 
DISL,ioos:station:DISL:MHPA:1,2016-10-06T07:00:00Z,30.6671,-87.9365,1.357,4.0,1111122 
DISL,ioos:station:DISL:MHPA:1,2016-10-06T07:30:00Z,30.6671,-87.9365,1.36,3.89,1111122 
DISL,ioos:station:DISL:MHPA:1,2016-10-06T08:00:00Z,30.6671,-87.9365,1.371,4.41,1111122 
DISL,ioos:station:DISL:MHPA:1,2016-10-06T08:30:00Z,30.6671,-87.9365,1.375,4.49,1111122 
DISL,ioos:station:DISL:MHPA:1,2016-10-06T09:00:00Z,30.6671,-87.9365,1.363,4.62,1111122 
DISL,ioos:station:DISL:MHPA:1,2016-10-06T09:30:00Z,30.6671,-87.9365,1.367,4.1,1111122 
DISL,ioos:station:DISL:MHPA:1,2016-10-06T10:30:00Z,30.6671,-87.9365,1.342,3.94,1111122 
DISL,ioos:station:DISL:MHPA:1,2016-10-06T11:00:00Z,30.6671,-87.9365,1.327,3.97,1111122 
DISL,ioos:station:DISL:MHPA:1,2016-10-06T11:30:00Z,30.6671,-87.9365,1.309,4.01,1111122 
DISL,ioos:station:DISL:MHPA:1,2016-10-06T12:00:00Z,30.6671,-87.9365,1.276,3.29,1111122 
DISL,ioos:station:DISL:MHPA:1,2016-10-06T12:30:00Z,30.6671,-87.9365,1.247,3.25,1111122 
DISL,ioos:station:DISL:MHPA:1,2016-10-06T13:00:00Z,30.6671,-87.9365,1.22,3.42,1111122 
DISL,ioos:station:DISL:MHPA:1,2016-10-06T13:30:00Z,30.6671,-87.9365,1.189,2.42,1111122 
DISL,ioos:station:DISL:MHPA:1,2016-10-06T14:00:00Z,30.6671,-87.9365,1.159,3.49,1111122 
DISL,ioos:station:DISL:MHPA:1,2016-10-06T14:30:00Z,30.6671,-87.9365,1.145,4.02,1111122 
DISL,ioos:station:DISL:MHPA:1,2016-10-06T15:00:00Z,30.6671,-87.9365,1.12,3.36,1111122 
DISL,ioos:station:DISL:MHPA:1,2016-10-06T15:30:00Z,30.6671,-87.9365,1.1,4.64,1111122 
DISL,ioos:station:DISL:MHPA:1,2016-10-06T16:00:00Z,30.6671,-87.9365,1.095,4.84,1111122 